Regional Weather Roundup
Issued by NWS Mt. Holly, NJ

Home | Current Version | Previous Version | Text Only | Print | Product List | Glossary On
Versions: 1 2 3 4 5 6 7 8 9 10 11 12 13 14 15 16 17 18 19 20 21 22 23 24 25 26 27 28 29 30 31 32 33 34 35 36 37 38 39 40 41 42 43 44 45 46 47 48
000
ASUS41 KPHI 300910
RWRPHI

REGIONAL WEATHER ROUNDUP
NATIONAL WEATHER SERVICE MOUNT HOLLY NJ
400 AM EST FRI JAN 30 2015

NOTE:  "FAIR" INDICATES FEW OR NO CLOUDS BELOW 12,000 FEET WITH NO
SIGNIFICANT WEATHER AND/OR OBSTRUCTIONS TO VISIBILITY.

 * = STATION DOES NOT REPORT PRECIPITATION (E.G. RAIN, SNOW, ETC.)
        OR FOG.

NJZ015>026-301000-
SOUTHERN NEW JERSEY

CITY           SKY/WX    TMP DP  RH WIND       PRES   REMARKS
POMONA         CLOUDY    38  29  70 S9        29.87F WCI  31
RIO GRANDE*    CLOUDY    37  25  60 SW9       29.86F WCI  31
MILLVILLE      FLURRIES  37  26  64 SW3       29.87F
WRIGHTSTOWN    CLOUDY    35  27  73 SW5       29.84F WCI  31
MOUNT HOLLY    CLOUDY    34  25  69 CALM      29.87F
TRENTON        CLOUDY    30  25  81 CALM      29.86F

$$
NJZ001>014-301000-
NORTHERN NEW JERSEY

CITY           SKY/WX    TMP DP  RH WIND       PRES   REMARKS
SUSSEX         CLOUDY    26  23  88 CALM      29.85F FOG
ANDOVER*         N/A     27  24  89 CALM      29.85F
MORRISTOWN     CLOUDY    30  28  93 CALM      29.87F
NEWARK         FLURRIES  32  30  92 CALM      29.87F
TETERBORO      FLURRIES  31  28  89 CALM      29.86F
CALDWELL       CLOUDY    29  27  92 CALM      29.87F
SOMERVILLE     CLOUDY    30  26  85 NW3       29.86F
ALLAIRE*       CLOUDY    36  27  69 S5        29.85F WCI  32
TOMS RIVER*    CLOUDY    36  28  75 SW5       29.87F WCI  32

$$
PAZ043-044-047-054-055-060>062-066>071-301000-
EASTERN PENNSYLVANIA

CITY           SKY/WX    TMP DP  RH WIND       PRES   REMARKS
PHILADELPHIA   CLOUDY    34  25  69 W6        29.88F WCI  29
NORTH PHILA    CLOUDY    33  24  69 CALM      29.89F
BLUE BELL      CLOUDY    32  27  80 CALM      29.86F
DOYLESTOWN     CLOUDY    28  26  92 NW3       29.85F
QUAKERTOWN*    CLOUDY    28  27  93 CALM      29.87F
POTTSTOWN      CLOUDY    29  25  85 CALM      29.88F
LANCASTER      CLOUDY    29  25  85 W5        29.88S WCI  24
COATESVILLE    MIX PCPN  32  27  80 W6        29.86F WCI  26
READING        CLOUDY    29  25  85 CALM      29.88S
ALLENTOWN      CLOUDY    28  24  85 CALM      29.87F
MOUNT POCONO   LGT SNOW  24  21  88 W7        29.76F FOG     WCI  16
HAZLETON       MIX PCPN  27  25  93 W5        29.82F WCI  21
WILKES BARRE   LGT SNOW  27  23  85 SW5       29.82F FOG     WCI  22

$$
DEZALL-MDZ008-012-015-019-020-301000-
DELAWARE AND EASTERN MARYLAND

CITY           SKY/WX    TMP DP  RH WIND       PRES   REMARKS
WILMINGTON     CLOUDY    33  25  72 W5        29.89F WCI  29
DOVER          LGT RAIN  37  27  67 SW7       29.88F WCI  31
GEORGETOWN     CLOUDY    39  24  55 SW5       29.89F
EASTON         CLOUDY    39  28  63 W3        29.93F
PATUXENT       CLOUDY    40  22  48 W9        29.91S WCI  34
OCEAN CITY     CLOUDY    38  30  73 W5        29.89F WCI  34
WALLOPS ISLAND LGT RAIN  42  27  55 W13G21    29.90F
CAMBRIDGE      CLOUDY    37  30  75 CALM      29.90F
SALISBURY      CLOUDY    42  26  53 W8        29.90S

$$
PAZ001-021-NYZ056-072-MDZ011-DCZ001-301000-
OTHER NEARBY LOCATIONS

CITY           SKY/WX    TMP DP  RH WIND       PRES   REMARKS
HARRISBURG     CLOUDY    28  25  88 NW10      29.89F WCI  19
STATE COLLEGE  LGT SNOW  29  26  90 W10       29.88S WCI  20
WILLIAMSPORT   LGT SNOW  27  23  85 W5        29.89S FOG     WCI  22
BINGHAMTON     CLOUDY    24  22  91 W8        29.77F WCI  15
NEW YORK CITY  CLOUDY    37  27  67 CALM      29.88F
BALTIMORE      CLOUDY    35  25  66 NW5       29.90F WCI  31
WASHINGTON DC  CLOUDY    41  25  53 W6        29.93F

$$


USA.gov is the U.S. government's official web portal to all federal, state and local government web resources and services.